Overview Statistics Trail Chart Weather Telemetry Raw packets
 

This is the latest recevied weather packets stored in our database for station/object CW79215. If no packets are shown the sender has not sent any weather packets the latest 10 day(s).

<< 5 6 7 8 9 10 11 >>
Time Temp. Humidity Pressure Rain* Wind** Luminosity Snow
1788555942 22.78° C 57% 1027 hPa - - - -
1788555041 22.78° C 57% 1026.8 hPa - - - -
1788554143 22.78° C 56% 1026.8 hPa - - - -
1788553243 22.78° C 56% 1026.8 hPa - - - -
1788552343 22.78° C 56% 1026.7 hPa - - - -
1788551443 23.33° C 55% 1026.6 hPa - - - -
1788550543 23.33° C 55% 1026.6 hPa - - - -
1788549643 23.89° C 51% 1026.5 hPa - - - -
1788548743 24.44° C 49% 1026.3 hPa - - - -
1788547843 25° C 48% 1026.2 hPa - - - -
1788546943 25° C 48% 1026 hPa - - - -
1788546043 25.56° C 44% 1025.9 hPa - - - -
1788545142 26.11° C 44% 1025.7 hPa - - - -
1788544242 26.67° C 42% 1025.6 hPa - - - -
1788543342 26.67° C 41% 1025.5 hPa - - - -
1788542442 27.78° C 38% 1025.4 hPa - - - -
1788541542 28.33° C 37% 1025.4 hPa - - - -
1788540642 28.33° C 36% 1025.3 hPa - - - -
1788539741 28.33° C 36% 1025.3 hPa - - - -
1788538841 28.89° C 35% 1025.3 hPa - - - -
1788537941 29.44° C 35% 1025.4 hPa - - - -
1788537041 29.44° C 34% 1025.5 hPa - - - -
1788536141 29.44° C 34% 1025.5 hPa - - - -
1788535240 30° C 34% 1025.5 hPa - - - -
1788534340 30° C 34% 1025.5 hPa - - - -

* Rain since midnight (hover to see other rain measurements)
** Current wind speed in m/s (hover to see current wind gust speed)